HA9HP Weather Reports


time (UTC)temp
C
wind
direction
speed
KPH
gust
KPH
rain 1hr
cm
rain 24hr
cm
rain mn
cm
humidity
%
barometer
mb
20260504191524 11 240 0.0 3.2 0.00 0.00 0.00 68 1015.6
20260504190030 11 238 0.0 3.2 0.00 0.00 0.00 65 1015.6
20260504184528 12 202 0.0 3.2 0.00 0.00 0.00 62 1015.4
20260504183020 13 186 0.0 3.2 0.00 0.00 0.00 57 1015.3
20260504181523 15 182 0.0 3.2 0.00 0.00 0.00 55 1015.1
20260504180028 17 182 0.0 3.2 0.00 0.00 0.00 48 1014.9
20260504174526 20 182 0.0 0.0 0.00 0.00 0.00 42 1015.0
20260504173025 22 182 0.0 3.2 0.00 0.00 0.00 35 1014.9
20260504171535 23 182 0.0 3.2 0.00 0.00 0.00 33 1014.8
20260504081528 21 240 6.4 16.1 0.00 0.00 0.00 32 1019.5
20260504050019 5 5 0.0 0.0 0.00 0.00 0.00 89 1019.3
20260504044527 4 5 0.0 3.2 0.00 0.00 0.00 89 1019.1
20260504043016 3 346 0.0 0.0 0.00 0.00 0.00 90 1019.1
20260504041512 2 346 0.0 0.0 0.00 0.00 0.00 91 1018.9
20260504040023 2 346 0.0 3.2 0.00 0.00 0.00 90 1018.8
20260504034523 2 340 0.0 0.0 0.00 0.00 0.00 89 1018.7
20260504033027 2 331 0.0 0.0 0.00 0.00 0.00 89 1018.7
20260504031514 2 331 0.0 0.0 0.00 0.00 0.00 88 1018.7
20260504030030 2 333 0.0 0.0 0.00 0.00 0.00 89 1018.6
20260504024523 2 334 0.0 0.0 0.00 0.00 0.00 88 1018.6
20260504023026 2 334 0.0 0.0 0.00 0.00 0.00 88 1018.7
20260504021530 2 329 0.0 0.0 0.00 0.00 0.00 88 1018.8
20260504020019 2 330 0.0 0.0 0.00 0.00 0.00 88 1018.7
20260504014519 2 331 0.0 3.2 0.00 0.00 0.00 87 1018.8
20260504013026 2 327 0.0 3.2 0.00 0.00 0.00 87 1018.8
20260504011528 3 327 0.0 3.2 0.00 0.00 0.00 87 1018.8
20260504010030 3 331 0.0 0.0 0.00 0.00 0.00 87 1018.8
20260504004522 3 327 0.0 3.2 0.00 0.00 0.00 87 1018.7
20260504003021 3 323 0.0 1.6 0.00 0.00 0.00 86 1018.7
20260504001526 3 323 0.0 3.2 0.00 0.00 0.00 86 1018.8
20260504000027 3 323 0.0 3.2 0.00 0.00 0.00 86 1018.9
20260503234542 3 302 0.0 3.2 0.00 0.00 0.00 86 1018.9
20260503233021 4 302 0.0 3.2 0.00 0.00 0.00 85 1018.8
20260503231528 4 302 0.0 3.2 0.00 0.00 0.00 85 1018.8
20260503230029 5 302 0.0 3.2 0.00 0.00 0.00 85 1018.8
20260503224528 5 302 0.0 3.2 0.00 0.00 0.00 84 1018.8
20260503223029 5 302 0.0 3.2 0.00 0.00 0.00 84 1018.8
20260503221523 5 302 0.0 3.2 0.00 0.00 0.00 84 1018.7
20260503220039 5 302 0.0 3.2 0.00 0.00 0.00 83 1018.7
20260503214529 5 302 0.0 3.2 0.00 0.00 0.00 82 1018.7
20260503213029 6 302 0.0 3.2 0.00 0.00 0.00 82 1018.8
20260503211528 6 302 0.0 3.2 0.00 0.00 0.00 82 1018.7
20260503210022 6 302 0.0 3.2 0.00 0.00 0.00 81 1018.7
20260503204526 6 302 0.0 3.2 0.00 0.00 0.00 80 1018.7
20260503203031 6 300 0.0 1.6 0.00 0.00 0.00 79 1018.7
20260503201530 7 300 0.0 3.2 0.00 0.00 0.00 78 1018.6
20260503200028 7 300 0.0 3.2 0.00 0.00 0.00 78 1018.7
20260503194524 8 300 0.0 3.2 0.00 0.00 0.00 77 1018.7
20260503193034 8 300 0.0 3.2 0.00 0.00 0.00 75 1018.8